Home   Weather   Northeim   Past weeks

Flag for Germany Past Weather in Northeim, Lower Saxony, Germany — Yesterday and Last 2 Weeks

Now
64 °F

Sunny.


Feels Like: 64 °F
Forecast: 51 / 62 °F
Wind: 12 mph from South

Location: Kassel / Calden

Current Time: Sep 29, 2016 at 12:10:48 PM

Latest Report: Sep 29, 2016 at 11:20 AM


Visibility: 10 mi

Pressure: 30.07 "Hg

Humidity: 73%

Dew Point: 55 °F

Location of NortheimLocation

Past Weather in Northeim — Graph

°F

Northeim Temperature Yesterday

Maximum temperature yesterday: 68 °F (at 3:20 PM)
Minimum temperature yesterday: 55 °F (at 7:20 AM)
Average temperature yesterday: 64 °F

High & Low Weather Summary for the Past Weeks

 TemperatureHumidityPressure
High86 °F (Sep 14, 2:50 PM)100% (Sep 16, 7:20 AM)30.33 "Hg (Sep 16, 7:20 AM)
Low43 °F (Sep 21, 7:20 AM)33% (Sep 14, 1:50 PM)29.86 "Hg (Sep 15, 3:50 PM)
Average63 °F69%30.11 "Hg
* Reported Sep 14 10:20 AM — Sep 29 10:50 AM, Northeim, Weather by CustomWeather, © 2016

Note: Actual official high and low records may vary slightly from our data, if they occured in-between our weather recording intervals... More about our weather records

Advertising

Northeim Weather History for the Previous 24 Hours

Scroll right to see more
 ConditionsComfort  
Time TempWeatherWind HumidityBarometerVisibility
10:50 AM
Thu, Sep 29
63 °FSunny.9 mph83%30.09 "Hg10 mi
10:20 AM59 °FSunny.9 mph88%30.09 "Hg10 mi
9:50 AM59 °FSunny.8 mph88%30.09 "Hg10 mi
9:20 AM57 °FPassing clouds.9 mph94%30.09 "HgN/A
8:50 AM57 °FPassing clouds.9 mph94%30.09 "HgN/A
8:20 AM57 °FSunny.12 mph94%30.12 "Hg10 mi
7:50 AM57 °FSunny.9 mph94%30.12 "Hg10 mi
7:20 AM57 °FSunny.9 mph88%30.12 "Hg10 mi
7:50 PM
Wed, Sep 28
63 °FClear.7 mph73%30.24 "Hg10 mi
7:20 PM64 °FClear.6 mph68%30.24 "Hg10 mi
6:50 PM64 °FSunny.7 mph64%30.24 "Hg10 mi
6:20 PM66 °FSunny.10 mph60%30.21 "Hg10 mi
5:50 PM66 °FSunny.12 mph60%30.21 "Hg10 mi
5:20 PM66 °FSunny.10 mph60%30.24 "Hg10 mi
4:50 PM66 °FSunny.12 mph60%30.24 "Hg10 mi
4:20 PM66 °FPartly sunny.15 mph60%30.24 "HgN/A
3:50 PM68 °FPartly sunny.16 mph60%30.21 "HgN/A
3:20 PM68 °FBroken clouds.14 mph64%30.24 "HgN/A
2:50 PM66 °FPartly sunny.12 mph64%30.24 "HgN/A
2:20 PM66 °FPartly sunny.14 mph64%30.24 "HgN/A
1:50 PM66 °FPartly sunny.14 mph64%30.24 "HgN/A
1:20 PM66 °FPartly sunny.14 mph64%30.24 "HgN/A
12:50 PM66 °FPartly sunny.13 mph64%30.24 "HgN/A
12:20 PM66 °FPartly sunny.14 mph60%30.24 "HgN/A
Weather by CustomWeather, © 2016

See weather overviewHow to use our weather pages